Simultaneous Nadir Overpasses (SNOs) Predictions

Prediction of SNOs between GOES-15 and NPP Satellite Orbit:

Table of predicted SNOs for the next 14.0 days since TLE Epoch: 2/24/2015
Index Date Time (GOES-15) GOES-15 Lat,Lon NPP Lat,Lon Distance(km) Time Diff (sec)
1 02/24/2015 22:33:55 0.04,-135.40 -0.09,-135.98 65.56 80
2 02/25/2015 22:17:50 0.04,-135.41 0.92,-131.45 451.07 80
3 02/27/2015 10:39:36 -0.03,-135.41 0.27,-136.72 148.83 80
4 02/28/2015 10:18:11 -0.03,-135.41 -0.74,-132.18 367.13 80
5 03/01/2015 22:40:06 0.02,-135.40 -0.45,-137.49 238.90 80
6 03/02/2015 22:24:01 0.02,-135.39 0.56,-132.96 277.29 80
7 03/04/2015 10:45:47 -0.02,-135.40 0.62,-138.23 322.59 80
8 03/05/2015 10:24:21 -0.02,-135.39 -0.39,-133.70 192.87 80
9 03/06/2015 22:46:17
